Orbital Elements at Epoch 2459200.5 (2020-Dec-17.0) TDB
Reference: JPL 29 (heliocentric ecliptic J2000)
Element | Value | Uncertainty (1-sigma) | Units |
e | .126660541405388 | 3.2695e-08 | |
a | 2.31419385157091 | 8.9895e-09 | au |
q | 2.021076805413918 | 7.7643e-08 | au |
i | 4.988109513948558 | 3.8836e-06 | deg |
node | 51.07043453016211 | 4.5756e-05 | deg |
peri | 233.4140377779248 | 4.8762e-05 | deg |
M | 323.0503064548986 | 1.7549e-05 | deg |
tp | 2459332.479466955859 (2021-Apr-27.97946696) | 6.2898e-05 | TDB |
period | 1285.872859706253 3.52 | 7.4925e-06 2.051e-08 | d yr |
n | .2799654703671396 | 1.6313e-09 | deg/d |
Q | 2.607310897727901 | 1.0128e-08 | au |
|
| | Orbit Determination Parameters
Additional Information
|